www.pogodaiklimat.ru

Погода и климат >> Архив погоды >> Россия >> Чукотка >> Баимка


ПОГОДА в Баимке

  • Прогноз погоды в Баимке
  • Монитор погоды в Баимке

АРХИВ ПОГОДЫ в Баимке

Время (UTC), дата Ветер
(напр.,м/с)
 
Видим.   Явления Облачность Т
(С)
Тd
(С)
f
(%)
Тe
(С)
Тes
(С)
Комфортность P
(гПа)
Po
(гПа)
Тmin
(С)
Tmax
(С)
R
(мм)
R24
(мм)
S
(см)
12 12.06 ЮВ 2
{3}
20 км 10/3 1000 м
[Sc Cs]
+15.0 +1.9 41 +15 +15 1011.7 978.0
15 12.06 штиль 0
{3}
20 км 10/3 1000 м
[Sc Ac trans Cs]
+5.7 +4.5 92 +5 +5 1013.4 978.6
18 12.06 Ю 1
{3}
20 км 10/3 1000 м
[Sc Ac trans Cs]
+13.2 +6.1 62 +14 +14 1012.9 979.0
21 12.06 Ю 3
{6}
20 км 9/0
[Ac trans Ci fib]
+20.1 +2.1 30 +21 +24 комфорт 1011.8 978.7 +5.7
00 13.06 Ю 4
{10}
20 км 9/0
[Ac trans Ci fib]
+22.1 0.0 23 +21 +26 комфорт 1010.7 977.8
03 13.06 З 3
{8}
20 км 8/1 600 м
[Cu hum Ac trans Ci fib]
+23.5 -6.0 13 +22 +26 комфорт 1009.3 976.7
06 13.06 З 3
{8}
20 км 8/0
[Ac trans Ci fib]
+23.5 -8.6 11 +21 +24 комфорт 1008.7 976.3
09 13.06 ЮВ 2
{7}
20 км 8/0
[Ac trans Ci fib]
+20.0 +0.9 28 +21 +21 комфорт 1009.5 976.5 +24.4
12 13.06 ЮВ 3
{4}
20 км 8/0
[Ac trans Ci fib]
+9.6 +2.5 61 +8 +8 1011.9 977.5
15 13.06 Ю 3
{5}
20 км 6/0
[Ac trans Ci fib]
+5.3 +0.4 71 +2 +2 1013.1 978.2
18 13.06 ЮВ 2
{5}
20 км 6/0
[Ac trans Ci fib]
+11.0 +2.1 54 +10 +11 1012.6 978.5
21 13.06 Ю 2
{4}
20 км 3/0
[Ci fib]
+23.0 -3.3 17 +21 +28 комфорт 1010.9 978.2 +3.5
00 14.06 ЮЗ 3
{9}
20 км 1/1 1000 м
[Cu hum]
+24.8 -4.4 14 +23 +31 комфорт 1010.3 977.7
03 14.06 С 2
{6}
20 км 3/3 1000 м
[Cu hum]
+26.5 -3.3 14 +24 +31 комфорт 1009.5 977.2
06 14.06 СЗ 1
{5}
20 км 8/0
[Ac trans Ci fib]
+20.7 +12.6 60 +24 +27 комфорт 1009.6 976.7
09 14.06 С 3
{6}
20 км 3/3 1000 м
[Sc diur, vesp]
+23.7 -0.2 21 +23 +23 комфорт 1010.0 977.4 +27.0
12 14.06 ЮВ 2
{4}
20 км 1/0
[Ac trans]
+10.6 +6.4 75 +9 +9 1012.7 978.6
15 14.06 ЮВ 3
{5}
20 км 3/0
[Ac trans]
+7.3 +3.6 77 +5 +5 1014.4 979.8
18 14.06 ЮВ 2
{5}
20 км 1/0
[Ac trans]
+13.5 +5.5 58 +13 +15 1014.7 980.7
21 14.06 ЮВ 4
{6}
20 км ясно +24.3 +4.5 28 +24 +28 комфорт 1013.6 980.9 +7.3
00 15.06 ЮВ 3
{7}
20 км 5/5 1000 м
[Cu med, cong]
+27.2 +1.5 19 +25 +30 комфорт 1013.3 980.9
03 15.06 ЮВ 3
{7}
20 км 6/6 600 м
[Cb cap]
+28.0 -2.7 13 +25 +29 комфорт 1012.5 980.3
06 15.06 Ю 1
{9}
20 км 8/8 600 м
[Cb cap]
+25.7 +1.7 21 +24 +25 комфорт 1013.6 981.0
09 15.06 СЗ 1
{5}
20 км 4/3 600 м
[Cb cap Ci fib]
+24.1 +3.8 27 +24 +24 комфорт 1014.2 981.5 +28.3
12 15.06 С 1
{3}
20 км 3/3 600 м
[Sc diur, vesp]
+11.8 +8.4 80 +12 +12 1017.1 983.0
15 15.06 ЮВ 3
{4}
20 км 3/3 600 м
[Sc]
+7.6 +5.8 88 +5 +5 1018.5 983.8
18 15.06 Ю 2
{4}
20 км 1/0
[Ac trans]
+13.0 +7.7 70 +12 +14 1018.3 984.2
21 15.06 ЮЗ 2
{4}
20 км 1/0
[Ci fib]
+23.3 +1.5 24 +23 +29 комфорт 1016.6 983.7 +7.4
00 16.06 ЮЗ 1
{5}
20 км 6/4 600 м
[Cu med, cong Ci fib]
+25.3 +0.4 20 +24 +31 комфорт 1015.4 982.8
03 16.06 В 2
{5}
20 км 8/6 600 м
[Cb calv Ci fib]
+25.0 +1.7 22 +24 +28 комфорт 1014.2 981.6
06 16.06 штиль 0
{4}
20 км 10/8 600 м
[Cb calv Ci fib]
+25.0 +7.1 32 +25 +26 комфорт 1013.1 980.5
09 16.06 СЗ 1
{2}
20 км 10/4 600 м
[Sc diur, vesp Ac trans Ci fib]
+20.9 +9.8 49 +24 +24 комфорт 1013.7 980.6 +27.2
12 16.06 Ю 2
{3}
20 км 8/3 600 м
[Sc diur, vesp Ac trans Ci fib]
+12.3 +6.7 69 +11 +11 1015.4 981.3
15 16.06 ЮВ 3
{4}
20 км 9/4 600 м
[Sc Ac trans Ci fib]
+9.0 +5.5 79 +7 +7 1015.9 981.4
18 16.06 Ю 2
{4}
20 км 10/3 600 м
[Cu med, cong Ac trans Ci fib]
+13.6 +7.6 67 +13 +14 1015.3 981.4
21 16.06 С 1
{3}
20 км 8/3 600 м
[Cu med, cong Ac trans Ci fib]
+22.5 +4.1 30 +23 +26 комфорт 1014.1 981.1 +8.5
00 17.06 СЗ 2
{5}
20 км 8/3 600 м
[Cu med, cong Ac trans Ci fib]
+25.8 +4.3 25 +25 +30 комфорт 1013.0 980.5
03 17.06 ЮЗ 2
{6}
20 км гроза без осадков 9/8 600 м
[Cb cap Ci fib]
+22.7 +1.1 24 +22 +24 комфорт 1013.1 980.2
06 17.06 Ю 1
{16}
20 км {гроза} 8/8 600 м
[Cb cap Ci fib]
+19.8 +6.7 42 +22 +23 комфорт 1013.9 980.7
09 17.06 СЗ 1
{5}
20 км 3/3 600 м
[Sc Ac trans]
+22.0 +7.1 38 +23 +23 комфорт 1013.0 980.1 +26.4
12 17.06 ЮВ 2
{3}
20 км 3/0
[Ac trans]
+9.8 +8.5 92 +8 +8 1014.7 980.4
15 17.06 ЮВ 3
{5}
20 км ясно +7.3 +5.9 91 +4 +4 1015.2 980.5
18 17.06 ЮВ 2
{4}
20 км 9/0
[Ci fib]
+13.2 +8.6 74 +13 +14 1014.7 980.7
21 17.06 Ю 2
{4}
20 км 10/0
[Cs]
+21.8 +5.6 35 +22 +28 комфорт 1013.0 980.1 +6.9
00 18.06 С 2
{5}
20 км 10/1 600 м
[Cu hum Cs]
+25.7 +4.8 26 +25 +33 комфорт 1011.7 979.3
03 18.06 СВ 2
{6}
20 км 9/9 600 м
[Cb calv]
+25.0 +5.5 29 +25 +26 комфорт 1010.7 978.2
06 18.06 С 2
{7}
20 км 9/8 600 м
[Cb calv Ci fib]
+24.5 +5.5 29 +24 +25 комфорт 1009.9 977.4
09 18.06 СВ 5
{7}
20 км 9/4 600 м
[Sc diur, vesp Ac trans Ci fib]
+23.9 +5.3 30 +24 +24 комфорт 1009.6 977.1 +27.5
12 18.06 Ю 1
{9}
20 км 10/3 600 м
[Sc diur, vesp Ac trans Ci fib]
+14.4 +8.9 70 +15 +15 1011.4 977.7
15 18.06 ЮВ 2
{4}
20 км 10/4 600 м
[Sc Ac lent Ci fib]
+9.9 +7.6 86 +8 +8 1012.2 977.9
18 18.06 штиль 0
{3}
20 км 10/10 600 м
[Sc]
+12.1 +9.2 82 +12 +12 1012.4 978.4
21 18.06 С 2
{4}
20 км 10/3 600 м
[Cu med, cong Ac trans Cs]
+18.7 +9.7 56 +20 +22 1011.7 978.5 +9.8
00 19.06 С 3
{5}
20 км 10/5 600 м
[Cu med, cong Ac trans Cs]
+23.0 +9.0 41 +24 +27 комфорт 1011.0 978.3
03 19.06 С 4
{6}
20 км 10/6 600 м
[Cb calv Ac trans Cs]
+25.1 +7.3 32 +25 +27 комфорт 1010.1 977.6
06 19.06 ЮЗ 5
{12}
20 км 10/10 600 м
[Cb cap]
+20.6 +7.8 44 +22 +22 комфорт 1011.0 978.0
09 19.06 СЗ 1
{11}
20 км {ливн. осадки} 10/10 600 м
[Cb cap]
+15.3 +12.7 84 +16 +16 1012.0 978.5 +25.4 0.3

 

Местоположение метеостанции Баимка (Чукотка, Россия): широта 66.53 долгота 164.20 высота над уровнем моря 287 м.

В архиве по умолчанию представлена погода в Баимке за последнюю неделю. Архивные данные за месяц целиком и за предыдущие месяцы, начиная с января 2011 года, Вы можете получить, выбрав интересующий диапазон дат из раскрывающегося списка и нажав кнопку "Ввод!".


*Определитесь, кто Вы:
робот инопланетянин человек

Внимание! Время в таблицах - всемирное. Для получения местного времени необходимо прибавить поправку, которая равна 12 ч.

Смотрите также архив погоды в соседних городах и на ближайших метеорологических станциях:

Погода в Островном (Чукотка, Россия) (177 км)
Погода в Илирнее (Чукотка, Россия) (180 км)
Погода в Билибино (Чукотка, Россия) (194 км)
Погода в Омолоне (Чукотка, Россия) (222 км)
Погода в Константиновской (Чукотка, Россия) (224 км)
Погода в Анюйске (Чукотка, Россия) (233 км)
Погода в Верхне-Пенжино (Камчатский край, Россия) (257 км)
Погода в Черском (Якутия, Россия) (274 км)
Погода в Кегали (Магаданская область, Россия) (294 км)
Погода в Колымской (Якутия, Россия) (340 км)

Пояснения к столбцам:

Ветер - указаны скорость ветра в м/с - средняя за 10 мин, порывы в срок и между сроками (в фигурных скобках) и направление, откуда дует ветер: С - северный, СВ - северо-восточный, В - восточный, ЮВ - юго-восточный, Ю - южный, ЮЗ - юго-западный, З - западный, СЗ - северо-западный.
Видимость - горизонтальная дальность видимости в метрах или километрах. При видимости от 1 до 10 км при отсутствии осадков обычно наблюдается дымка, при ухудшении видимости до 1 км и менее - туман. В сухую погоду видимость может ухудшаться дымом, пылью или мглою.
Явления - указаны атмосферные явления, наблюдавшиеся в срок или в последний час перед сроком; фигурными скобками обозначены явления, наблюдавшиеся между сроками (за 1-3 часа до срока); квадратными скобками обозначены град или гололедные отложения с указанием их диаметра в мм.
Облачность - указаны через наклонную черту общая и нижняя облачность в баллах и высота нижней границы облаков в метрах; квадратными скобками обозначены формы облаков: Ci - перистые, Cs - перисто-слоистые, Cc - перисто-кучевые, Ac - высококучевые, As - высокослоистые, Sc - слоисто-кучевые, Ns - слоисто-дождевые, Cu - кучевые, Cb - кучево-дождевые. Подробнее классификацию облаков см. в Атласе облаков (PDF).
T - Температура воздуха - температура, измеренная на высоте 2 м над землей.
Td - Температура точки росы - температура, при понижении до которой содержащийся в воздухе водяной пар достигнет насыщения.
f - Относительная влажность воздуха - влажноcть воздуха, измеренная на высоте 2 м над землей.
Te - Эффективная температура - температура, которую ощущает одетый по сезону человек в тени. Характеристика душности погоды. При расчете учитывается влияние влажности воздуха и скорости ветра на теплоощущения человека.
Tes - Эффективная температура на солнце - температура, которую ощущает человек, с поправкой на солнечный нагрев. Характеристика знойности погоды. Зависит от высоты солнца над горизонтом, облачности и скорости ветра. Ночью, в пасмурную погоду, а также при ветре 12 м/с и более поправка равна нулю.
P - Атмосферное давление - приведенное к уровню моря атмосферное давление.
Po - Атмосферное давление - измеренное на уровне метеостанции атмосферное давление.
Tmin - Минимальная температура - минимум температуры воздуха на высоте 2 м над землей.
Tmax - Максимальная температура - максимум температуры воздуха на высоте 2 м над землей.
R - Количество осадков - Количество выпавших осадков за период времени, мм. При наведении курсора мыши на число - период времени, за который выпало указанное количество осадков.
R24 - Количество осадков - Количество выпавших осадков за 24 часа, мм.
S - Снежный покров - Высота снежного покрова, см. При наведении курсора мыши на число - состояние снежного покрова и степень покрытия местности в баллах.